| time (UTC) | temp F | wind direction | speed MPH | gust MPH | rain 1hr in | rain 24hr in | rain mn in | humidity % | barometer mb |
| 20260901134613 | 76 | 333 | 6.0 | 9.0 | 0.00 | 0.00 | 0.00 | 43 | 1020.3 |
| 20260901133112 | 76 | 319 | 3.0 | 8.0 | 0.00 | 0.00 | 0.00 | 47 | 1020.3 |
| 20260901131612 | 75 | 331 | 5.0 | 13.0 | 0.00 | 0.00 | 0.00 | 44 | 1020.3 |
| 20260901130112 | 74 | 204 | 4.0 | 11.0 | 0.00 | 0.00 | 0.00 | 47 | 1020.4 |
| 20260901124612 | 74 | 254 | 6.0 | 11.0 | 0.00 | 0.00 | 0.00 | 46 | 1020.4 |
| 20260901123112 | 75 | 270 | 7.0 | 14.0 | 0.00 | 0.00 | 0.00 | 45 | 1020.4 |
| 20260901121612 | 77 | 265 | 7.0 | 12.0 | 0.00 | 0.00 | 0.00 | 44 | 1020.2 |
| 20260901120111 | 76 | 311 | 8.0 | 15.0 | 0.00 | 0.00 | 0.00 | 45 | 1020.6 |
| 20260901113111 | 76 | 290 | 9.0 | 15.0 | 0.00 | 0.00 | 0.00 | 47 | 1020.6 |
| 20260901111612 | 75 | 283 | 6.0 | 12.0 | 0.00 | 0.00 | 0.00 | 49 | 1020.6 |
| 20260901110111 | 76 | 248 | 9.0 | 17.0 | 0.00 | 0.00 | 0.00 | 51 | 1020.6 |
| 20260901104611 | 73 | 292 | 6.0 | 16.0 | 0.00 | 0.00 | 0.00 | 53 | 1020.7 |
| 20260901103111 | 74 | 306 | 9.0 | 13.0 | 0.00 | 0.00 | 0.00 | 52 | 1020.7 |
| 20260901101611 | 74 | 284 | 4.0 | 9.0 | 0.00 | 0.00 | 0.00 | 54 | 1020.6 |
| 20260901094610 | 73 | 283 | 7.0 | 13.0 | 0.00 | 0.00 | 0.00 | 53 | 1020.8 |
| 20260901093110 | 73 | 5 | 6.0 | 12.0 | 0.00 | 0.00 | 0.00 | 56 | 1020.6 |
| 20260901091610 | 73 | 336 | 7.0 | 15.0 | 0.00 | 0.00 | 0.00 | 56 | 1020.7 |
| 20260901084611 | 71 | 300 | 5.0 | 14.0 | 0.00 | 0.00 | 0.00 | 60 | 1020.8 |
| 20260901081611 | 70 | 298 | 5.0 | 12.0 | 0.00 | 0.00 | 0.00 | 62 | 1020.7 |
| 20260901080110 | 70 | 340 | 5.0 | 17.0 | 0.00 | 0.00 | 0.00 | 63 | 1020.6 |
| 20260901074609 | 69 | 263 | 8.0 | 17.0 | 0.00 | 0.00 | 0.00 | 63 | 1020.6 |
| 20260901073109 | 68 | 264 | 8.0 | 11.0 | 0.00 | 0.00 | 0.00 | 66 | 1020.3 |
| 20260901071609 | 67 | 267 | 5.0 | 14.0 | 0.00 | 0.00 | 0.00 | 67 | 1020.2 |
| 20260901064609 | 66 | 312 | 5.0 | 11.0 | 0.00 | 0.00 | 0.00 | 70 | 1019.9 |
| 20260901060109 | 63 | 286 | 7.0 | 12.0 | 0.00 | 0.00 | 0.00 | 73 | 1019.8 |
| 20260901053109 | 62 | 269 | 4.0 | 8.0 | 0.00 | 0.00 | 0.00 | 75 | 1019.4 |
| 20260901051609 | 62 | 261 | 3.0 | 7.0 | 0.00 | 0.00 | 0.00 | 75 | 1019.3 |
| 20260901044609 | 61 | 256 | 3.0 | 11.0 | 0.00 | 0.00 | 0.00 | 76 | 1019.1 |
| 20260901043109 | 61 | 276 | 4.0 | 11.0 | 0.00 | 0.00 | 0.00 | 76 | 1018.9 |
| 20260901041608 | 60 | 263 | 5.0 | 11.0 | 0.00 | 0.00 | 0.00 | 76 | 1018.8 |
| 20260901040108 | 60 | 292 | 6.0 | 11.0 | 0.00 | 0.00 | 0.00 | 76 | 1018.6 |
| 20260901034608 | 60 | 246 | 4.0 | 9.0 | 0.00 | 0.00 | 0.00 | 76 | 1018.5 |
| 20260901033108 | 60 | 274 | 1.0 | 7.0 | 0.00 | 0.00 | 0.00 | 76 | 1018.6 |
| 20260901030108 | 60 | 254 | 2.0 | 6.0 | 0.00 | 0.00 | 0.00 | 75 | 1018.6 |
| 20260901024608 | 60 | 257 | 1.0 | 6.0 | 0.00 | 0.00 | 0.00 | 75 | 1018.6 |
| 20260901023113 | 61 | 276 | 0.0 | 0.0 | 0.00 | 0.00 | 0.00 | 74 | 1018.7 |
| 20260901021613 | 62 | 275 | 1.0 | 3.0 | 0.00 | 0.00 | 0.00 | 73 | 1018.6 |
| 20260901020113 | 62 | 317 | 2.0 | 6.0 | 0.00 | 0.00 | 0.00 | 72 | 1018.5 |
| 20260901014613 | 63 | 284 | 3.0 | 5.0 | 0.00 | 0.00 | 0.00 | 71 | 1018.4 |
| 20260901013113 | 63 | 272 | 7.0 | 10.0 | 0.00 | 0.00 | 0.00 | 72 | 1018.2 |
| 20260901011612 | 62 | 222 | 1.0 | 7.0 | 0.00 | 0.00 | 0.00 | 73 | 1018.2 |
| 20260901010112 | 61 | 262 | 0.0 | 7.0 | 0.00 | 0.00 | 0.00 | 77 | 1018.1 |
| 20260901003112 | 59 | 272 | 2.0 | 6.0 | 0.00 | 0.00 | 0.00 | 83 | 1018.0 |
| 20260901001612 | 59 | 294 | 0.0 | 0.0 | 0.00 | 0.00 | 0.00 | 84 | 1018.1 |
| 20260901000112 | 59 | 293 | 1.0 | 3.0 | 0.00 | 0.00 | 0.00 | 83 | 1018.2 |
| 20260831234611 | 60 | 292 | 0.0 | 0.0 | 0.00 | 0.00 | 0.00 | 83 | 1018.1 |
| 20260831233111 | 60 | 292 | 0.0 | 2.0 | 0.00 | 0.00 | 0.00 | 82 | 1018.3 |
| 20260831231612 | 61 | 292 | 0.0 | 0.0 | 0.00 | 0.00 | 0.00 | 81 | 1018.3 |
| 20260831230112 | 62 | 292 | 0.0 | 0.0 | 0.00 | 0.00 | 0.00 | 80 | 1018.6 |
| 20260831224611 | 63 | 292 | 0.0 | 0.0 | 0.00 | 0.00 | 0.00 | 79 | 1018.7 |
| 20260831223111 | 63 | 292 | 0.0 | 0.0 | 0.00 | 0.00 | 0.00 | 79 | 1018.7 |
| 20260831221611 | 64 | 292 | 0.0 | 0.0 | 0.00 | 0.00 | 0.00 | 78 | 1018.6 |
| 20260831220111 | 64 | 291 | 0.0 | 0.0 | 0.00 | 0.00 | 0.00 | 76 | 1018.5 |
| 20260831213111 | 65 | 291 | 0.0 | 0.0 | 0.00 | 0.00 | 0.00 | 74 | 1018.4 |
| 20260831211610 | 66 | 291 | 0.0 | 0.0 | 0.00 | 0.00 | 0.00 | 70 | 1018.2 |
| 20260831204610 | 66 | 292 | 1.0 | 2.0 | 0.00 | 0.00 | 0.00 | 69 | 1017.8 |
| 20260831201610 | 67 | 298 | 1.0 | 4.0 | 0.00 | 0.00 | 0.00 | 66 | 1016.9 |
| 20260831200110 | 67 | 294 | 1.0 | 3.0 | 0.00 | 0.00 | 0.00 | 66 | 1016.7 |
| 20260831194610 | 67 | 310 | 2.0 | 4.0 | 0.00 | 0.00 | 0.00 | 66 | 1016.8 |
| 20260831193110 | 67 | 316 | 4.0 | 9.0 | 0.00 | 0.00 | 0.00 | 66 | 1016.4 |
| 20260831191610 | 67 | 314 | 3.0 | 5.0 | 0.00 | 0.00 | 0.00 | 66 | 1016.5 |
| 20260831190109 | 67 | 317 | 2.0 | 4.0 | 0.00 | 0.00 | 0.00 | 66 | 1016.2 |
| 20260831184609 | 67 | 297 | 2.0 | 4.0 | 0.00 | 0.00 | 0.00 | 65 | 1016.3 |
| 20260831183109 | 67 | 305 | 2.0 | 4.0 | 0.00 | 0.00 | 0.00 | 64 | 1016.2 |
| 20260831181609 | 68 | 326 | 2.0 | 4.0 | 0.00 | 0.00 | 0.00 | 64 | 1015.8 |
| 20260831180109 | 69 | 318 | 0.0 | 0.0 | 0.00 | 0.00 | 0.00 | 65 | 1015.7 |
| 20260831173109 | 72 | 318 | 0.0 | 0.0 | 0.00 | 0.00 | 0.00 | 58 | 1015.4 |
| 20260831171611 | 73 | 317 | 1.0 | 4.0 | 0.00 | 0.00 | 0.00 | 55 | 1015.3 |
| 20260831170109 | 74 | 304 | 1.0 | 4.0 | 0.00 | 0.00 | 0.00 | 55 | 1015.4 |
| 20260831164609 | 75 | 273 | 2.0 | 6.0 | 0.00 | 0.00 | 0.00 | 53 | 1015.5 |
| 20260831163109 | 76 | 327 | 3.0 | 7.0 | 0.00 | 0.00 | 0.00 | 52 | 1015.6 |
| 20260831161609 | 78 | 304 | 3.0 | 10.0 | 0.00 | 0.00 | 0.00 | 49 | 1015.5 |
| 20260831154609 | 79 | 279 | 3.0 | 9.0 | 0.00 | 0.00 | 0.00 | 49 | 1015.4 |
| 20260831153108 | 79 | 259 | 4.0 | 10.0 | 0.00 | 0.00 | 0.00 | 50 | 1015.4 |
| 20260831151609 | 79 | 282 | 6.0 | 13.0 | 0.00 | 0.00 | 0.00 | 49 | 1015.5 |
| 20260831150113 | 80 | 268 | 6.0 | 13.0 | 0.00 | 0.00 | 0.00 | 50 | 1015.4 |
| 20260831144613 | 80 | 271 | 3.0 | 10.0 | 0.00 | 0.00 | 0.00 | 50 | 1015.4 |
| 20260831143113 | 81 | 201 | 4.0 | 11.0 | 0.00 | 0.00 | 0.00 | 50 | 1015.3 |
| 20260831141613 | 78 | 252 | 5.0 | 9.0 | 0.00 | 0.00 | 0.00 | 55 | 1015.2 |
| 20260831140113 | 79 | 274 | 3.0 | 11.0 | 0.00 | 0.00 | 0.00 | 55 | 1015.2 |